Content
SEND FEEDBACK

Daily
Averages
Monthly
Summary
Mexico

LEONA VICARIO, QUINTANA ROO


Home > North America > Mexico > Quintana Roo
Elevation: 26 feet     Latitude: 20 59N     Longitude: 087 12W

WEATHER
 
SELECT A DAY
Number of Records: 166,596;   Date Range: 1/1/95 - 10/30/14
 
SHARE

PRINT THIS DATA

[ ← Previous Day ]
WEATHER ALMANAC - FEBRUARY 3, 2013
[ Next Day → ]
[ °C ]   °F
Weather ElementAverageHighLow
Temperature72.1 °F78.8 °F (11:44 am)66.2 °F (3:45 am)
Dewpoint62.8 °F69.8 °F (7:45 am)59 °F (1:42 pm)
Humidity74.2 %100 % (2:46 am)54 % (11:44 am)
Barometer30.09 in30.16 in (9:44 am)30.04 in (2:46 am)
Wind Speed6.3 mph15 mph (10:44 am)
Wind Gust20.7 mph (1:42 pm)
Weather ElementAverage
Visibility6.9 mi
Wind DirectionESE (98.7 °)

Weather ElementTotal
Precipitation---
Cooling Degree Days7.5 (Base 65)
Growing Degree Days22.5 (Base 50)
Averaged from 23 records on February 3, 2013
WEATHER CONDITIONS BREAKOUT
WIND DIRECTION BREAKOUT
WEATHER BY HOUR - FEBRUARY 3, 2013
[ °C ]   °F
Local TimeTemperatureDewpointHumidityBarometerVisibilityWind DirectionWind SpeedGust SpeedPrecipitationEventsConditions
1:44 AM69.8 °F68.0 °F94 %30.06 in7.0 miCalmMostly Cloudy
2:46 AM68.0 °F68.0 °F100 %30.04 in7.0 miNNW (330°)5.8 mphMostly Cloudy
3:45 AM66.2 °F66.2 °F100 %30.06 in7.0 miCalmMostly Cloudy
4:44 AM66.2 °F66.2 °F100 %30.07 in7.0 miNW (320°)5.8 mphMostly Cloudy
5:43 AM69.8 °F68.0 °F94 %30.06 in7.0 miCalmScattered Clouds
6:42 AM69.8 °F68.0 °F94 %30.11 in7.0 miNNW (330°)5.8 mphScattered Clouds
7:45 AM71.6 °F69.8 °F94 %30.13 in7.0 miNNE (30°)4.6 mphMostly Cloudy
8:40 AM71.6 °F69.8 °F94 %30.15 in5.0 miNNW (330°)6.9 mphMostly Cloudy
9:44 AM75.2 °F66.2 °F73 %30.16 in7.0 miNE (40°)11.5 mphMostly Cloudy
10:44 AM77.0 °F62.6 °F61 %30.14 in7.0 miNNE (30°)15.0 mphScattered Clouds
11:44 AM78.8 °F60.8 °F54 %30.13 in7.0 miNE (50°)13.8 mphMostly Cloudy
12:40 PM78.8 °F60.8 °F54 %30.11 in7.0 miNNE (30°)11.5 mphMostly Cloudy
1:42 PM77.0 °F59.0 °F54 %30.09 in7.0 miNE (40°)9.2 mph20.7 mphMostly Cloudy
2:41 PM75.2 °F59.0 °F57 %30.07 in7.0 miNE (40°)8.1 mphMostly Cloudy
3:43 PM75.2 °F59.0 °F57 %30.07 in7.0 miNE (50°)9.2 mphMostly Cloudy
4:41 PM75.2 °F59.0 °F57 %30.08 in7.0 miNNE (30°)6.9 mphMostly Cloudy
5:43 PM71.6 °F59.0 °F64 %30.07 in7.0 miNNE (30°)5.8 mphScattered Clouds
6:42 PM71.6 °F59.0 °F64 %30.08 in7.0 miNE (40°)4.6 mphScattered Clouds
7:43 PM71.6 °F59.0 °F64 %30.09 in7.0 miNE (50°)4.6 mphPartly Cloudy
8:42 PM69.8 °F59.0 °F68 %30.10 in7.0 miNE (50°)3.5 mphScattered Clouds
9:45 PM69.8 °F59.0 °F68 %30.09 in7.0 miNE (50°)3.5 mphScattered Clouds
10:48 PM69.8 °F59.0 °F68 %30.08 in7.0 miNE (40°)5.8 mphPartly Cloudy
11:44 PM68.0 °F59.0 °F73 %30.06 in7.0 miNorth (360°)3.5 mphPartly Cloudy
Hourly data recorded from MMUN, located miles away from Leona Vicario, Quintana Roo







STORIES FROM OUR PARTNERS